Regional Weather Roundup
Issued by NWS

Home | Current Version | Previous Version | Text Only | Print | Product List | Glossary On
Versions: 1 2 3 4 5 6 7 8 9 10 11 12 13 14 15 16 17 18 19 20 21 22 23 24 25 26 27 28 29 30 31 32 33 34 35 36 37 38 39 40 41 42 43 44 45 46 47 48 49 50
000
ASUS42 KTBW 182017
RWRFL
FLORIDA REGIONAL WEATHER ROUNDUP
NATIONAL WEATHER SERVICE TAMPA BAY RUSKIN FL
400 PM EDT WED OCT 18 2017

NOTE: "FAIR" INDICATES FEW OR NO CLOUDS BELOW 12,000 FEET WITH NO
SIGNIFICANT WEATHER AND/OR OBSTRUCTIONS TO VISIBILITY.

FLZ001>010-012>015-112-114-115-182100-
PANHANDLE FLORIDA

CITY           SKY/WX    TMP DP  RH WIND       PRES   REMARKS
PENSACOLA      SUNNY     79  52  38 N8        30.16F
PENSACOLA NAS  MOSUNNY   76  52  43 E6        30.15F
MILTON NAS     MOSUNNY   75  55  49 VRB5      30.17  SMOKE
CRESTVIEW      SUNNY     78  54  43 E8        30.18F
DUKE FIELD     MOSUNNY   78  49  35 E7        30.16F
VALPARAISO     SUNNY     78  50  37 E10       30.15F
MARY ESTHER    SUNNY     78  50  37 E8        30.14F
PANAMA CITY    FAIR      80  52  37 NE9       30.14F
TYNDALL AFB    MOSUNNY   80  59  48 NE7       30.14S
APALACHICOLA   MOSUNNY   82  64  54 NE7       30.12F

STATION/POSITION SKY/WX   TEMP    WIND        PRES    WAVE   SWELL
                          AIR SEA DIR/SP/G            HT/PER HT/PER
                          (F)     (DEG/KT/KT) (MB)    (FT/S) (FT/S)
30.1N   87.6W              70 79   50/ 10/ 16 1021.1F   3/ 6   2/ 6
29.2N   88.2W              75 82   40/ 14/ 19 1020.4
28.8N   86.0W              76 82   60/ 16/ 19 1019.0F   5/ 7
PANAMA CITY BEAC           77 79   60/  6/ 12 1021.0F
TOWER C                    74      60/ 19/ 21 1020.4F
28.5N   84.5W              77 81   60/ 17/ 21 1018.1F   6/ 6   2/15

$$
FLZ011-016>038-118-127-128-134-139-239-182100-
NORTH FLORIDA

CITY           SKY/WX    TMP DP  RH WIND       PRES   REMARKS
MARIANNA       SUNNY     79  56  45 VRB5      30.16F
TALLAHASSEE    MOSUNNY   80  61  52 VRB6      30.15F
LIVE OAK       PTSUNNY   86  64  48 NE9       30.16S
CROSS CITY     MOSUNNY   83  66  56 NE16      30.15S
LAKE CITY      PTSUNNY   79  66  65 NE8       30.14F
GAINESVILLE    CLOUDY    82  62  50 NE17G23   30.14F
WILLISTON      SUNNY     84  66  54 VRB3G16   30.10S
PALATKA        FAIR      81  64  57 E16G23    30.12F
MAYPORT NAS    PTSUNNY   78  68  71 NE22G29   30.15F
JACKSONVILLE   PTSUNNY   79  67  66 NE17      30.17S
JAX NAS        MOSUNNY   80  67  64 NE21      30.16S
JAX CECIL      PTSUNNY   79  68  69 NE13G25   30.15F
ST AUGUSTINE   CLOUDY    79  68  69 NE21      30.15F
PALM COAST     PTSUNNY   77  68  73 NE15G29   30.12F

STATION/POSITION SKY/WX   TEMP    WIND        PRES    WAVE   SWELL
                          AIR SEA DIR/SP/G            HT/PER HT/PER
                          (F)     (DEG/KT/KT) (MB)    (FT/S) (FT/S)
SHELL POINT      NOT AVBL
KEATON BEACH               79      50/ 11/ 15 1019.6F
CEDAR KEY                  80      70/ 13/ 16 1019.1F
FERNANDINA                 74 75   10/  8/ 18 1022.6F
30.7N   81.3W                 78                N/A     7/ 9   2/11
MAYPORT                    75 78   40/ 21/ 25 1021.7F
31.4N   80.9W              72 78   40/ 19/ 23 1022.2F   6/ 6   3/10
ST AUGUSTINE               76 79   30/ 22/ 24 1020.5F

$$
FLZ040-043>046-052-053-057-058-063-144-182100-
INTERIOR CENTRAL FLORIDA

CITY           SKY/WX    TMP DP  RH WIND       PRES   REMARKS
OCALA          MOSUNNY   81  64  56 E13G20    30.10F
THE VILLAGES     N/A     81  64  57 N14G23    30.00F
LEESBURG       CLOUDY    82  63  52 NE16G25   30.10F
SANFORD        PTSUNNY   80  64  58 NE15G25   30.09S
ORLANDO EXEC   MOSUNNY   81  68  65 NE14G22   30.08F
ORLANDO INTL   LGT RAIN  80  68  66 NE24G31   30.07F
KISSIMMEE      MOSUNNY   82  69  64 NE17G23   30.08S
WINTER HAVEN     N/A    N/A N/A N/A MISG      30.08S
LAKELAND       PTSUNNY   82  70  65 NE16      30.07S
BARTOW         CLOUDY    77  72  83 NE9       30.07S
SEBRING        FAIR      80  69  70 NE18G26   30.05S
OKEECHOBEE     HVY RAIN  77  72  83 E6G18     30.03S

$$
FLZ041-047-054-059-064-141-147-182100-
EAST CENTRAL FLORIDA

CITY           SKY/WX    TMP DP  RH WIND       PRES   REMARKS
ORMOND BEACH   MOSUNNY   79  66  65 NE17G23   30.11F
DAYTONA BEACH  CLOUDY    81  69  67 NE17G23   30.11S
DELAND         CLOUDY    79  64  61 NE14G23   30.10S
NEW SMYRNA BEA MOSUNNY   81  64  57 NE16G29   30.11F
JFK SPACE CTR  SUNNY     81  71  70 NE14G20   30.07S
TITUSVILLE     PTSUNNY   82  66  57 NE21      30.08S
CAPE CANAVERAL SUNNY     82  69  64 NE21G26   30.06S
PATRICK AFB    MOSUNNY   81  72  72 NE22G29   30.06R
MELBOURNE      NOT AVBL
VERO BEACH     CLOUDY    80  74  81 NE14G21   30.04S
FT PIERCE      PTSUNNY   82  71  69 NE9       30.03S
STUART         PTSUNNY   84  73  70 NE17G28   30.03F

STATION/POSITION SKY/WX   TEMP    WIND        PRES    WAVE   SWELL
                          AIR SEA DIR/SP/G            HT/PER HT/PER
                          (F)     (DEG/KT/KT) (MB)    (FT/S) (FT/S)
28.5N   80.2W              80 83   30/ 21/ 25 1017.6F  10/10   8/10
TRIDENT PIER               81 82   20/ 14/ 20 1019.8F
28.4N   80.5W                 81                N/A     5/10   2/11
27.5N   80.2W                 81                N/A     7/11   3/11

$$
FLZ050-056-061-142-242-148-248-149-249-151-251-155-255-
160-260-182100-
WEST CENTRAL FLORIDA

CITY           SKY/WX    TMP DP  RH WIND       PRES   REMARKS
CRYSTAL RIVER  FAIR      82  64  54 E17G23    30.09S
INVERNESS      FAIR      81  64  57 NE15G21   30.09F
BROOKSVILLE    CLOUDY    83  66  56 NE16G24   30.08S
CLEARWATER AIR FAIR      81  68  65 E15G21    30.05R
ST PETE CLEARW CLOUDY    84  70  62 NE15      30.04F
TAMPA INTL     CLOUDY    82  68  62 NE12G22   30.06S
TAMPA EXEC     CLOUDY    81  72  74 NE17      30.06S
PLANT CITY     CLOUDY    81  70  69 NE12G22   30.08S
MACDILL AFB    PTSUNNY   82  68  61 NE12G20   30.05S
PETER O KNIGHT CLOUDY    79  70  73 E17G24    30.05S
ST PETERSBURG  PTSUNNY   80  71  74 E22       30.03S
SARASOTA       CLOUDY    82  69  64 E17G25    30.01R
VENICE         FAIR      88  68  51 E16G24    30.01S

STATION/POSITION SKY/WX   TEMP    WIND        PRES    WAVE   SWELL
                          AIR SEA DIR/SP/G            HT/PER HT/PER
                          (F)     (DEG/KT/KT) (MB)    (FT/S) (FT/S)
CLEARWATER BEACH           82 80   60/ 10/ 18 1017.7R
MIDDLE TAMPA BAY           81      70/ 17/ 20 1017.4R
VENICE                     86 82   60/ 12/ 14 1016.2F

$$
FLZ066-069-070-075>078-162-262-165-265-182100-
SOUTHWEST FLORIDA AND KEYS

CITY           SKY/WX    TMP DP  RH WIND       PRES   REMARKS
PUNTA GORDA    MOSUNNY   85  69  58 E12       30.02S
FT MYERS       MOSUNNY   85  69  58 E14       29.99F
SOUTHWEST INTL MOSUNNY   87  70  56 NE15G21   29.99F
NAPLES         MOSUNNY   86  72  62 NE16      29.97F
MARCO ISLAND     N/A     86  72  62 NE12      29.99S
IMMOKALEE      FAIR      88  72  58 NE16      30.00F
MARATHON       PTSUNNY   83  72  69 VRB5      29.96F
KEY WEST NAS   CLOUDY    82  77  84 E10       29.97F
KEY WEST INTL  MOSUNNY   81  74  79 E9        29.97F

STATION/POSITION SKY/WX   TEMP    WIND        PRES    WAVE   SWELL
                          AIR SEA DIR/SP/G            HT/PER HT/PER
                          (F)     (DEG/KT/KT) (MB)    (FT/S) (FT/S)
NAPLES                        83   40/  9/ 14 1015.2F
DRY TORTUGAS               80      70/ 11/ 12 1015.0F
SAND KEY                   79                 1015.4F
MOLASSES REEF              80 84   30/ 11/ 11 1014.9F

$$
FLZ067-068-071>074-168-172>174-182100-
SOUTHEAST FLORIDA

CITY           SKY/WX    TMP DP  RH WIND       PRES   REMARKS
W PALM BEACH   PTSUNNY   83  73  72 NE16G23   30.00S
BOCA RATON     MOSUNNY   82  73  74 NE8       29.99F
FT LAUDER-EXEC PTSUNNY   83  73  72 N7        29.98F
FT LAUDERDALE  PTSUNNY   85  76  74 NE9       29.97F
POMPANO BEACH  MOSUNNY   84  74  71 NE13      29.98F
PEMBROKE PINES MOSUNNY   86  73  65 NE6       29.99F
OPA LOCKA      MOSUNNY   86  72  62 NE7       29.98F
MIAMI          PTSUNNY   87  73  62 NE7       29.97F
WEST KENDALL   PTSUNNY   81  74  79 CALM      29.97F
HOMESTEAD      CLOUDY    82  75  80 CALM      29.97F

STATION/POSITION SKY/WX   TEMP    WIND        PRES    WAVE   SWELL
                          AIR SEA DIR/SP/G            HT/PER HT/PER
                          (F)     (DEG/KT/KT) (MB)    (FT/S) (FT/S)
PORT EVERGLADES            83      40/  7/ 11 1015.3F
VIRGINIA KEY               83 84   20/  4/  7 1014.8F
LAKE WORTH                 80 84   20/ 11/ 12 1016.8S
FOWEY ROCKS                81 83   10/  4/  4 1015.5F
SETTLEMENT POINT           81      50/  5/  5 1015.6F

$$




USA.gov is the U.S. government's official web portal to all federal, state and local government web resources and services.